TDS 1

Last updated on July 6, 2021, 3:44 p.m. UTC

1 40076U 14037H   21186.85608165  .00000388  00000-0  52877-4 0  9991
2 40076  98.4357  35.4017 0008190 105.4352 254.7766 14.84783251378269
UTC
Height (km)
Latitude
Longitude
Inclination
Orbital Period
UTC large
Height (km)
Speed (km/s)
/
Latitude / Longitude
Inclination (degrees)
Orbital Period (minutes)
Azimuth
Elevation
Range (km)
Doppler Factor
iOS Compass Heading
iOS Angle